| time (UTC) | temp C | wind direction | speed KPH | gust KPH | rain 1hr cm | rain 24hr cm | rain mn cm | humidity % | barometer mb |
| 20260507052013 | 11 | 19 | 0.0 | 0.0 | 0.00 | 0.00 | 0.00 | 85 | 1003.8 |
| 20260507051505 | 12 | 19 | 0.0 | 0.0 | 0.00 | 0.00 | 0.00 | 86 | 1003.8 |
| 20260507050959 | 12 | 19 | 0.0 | 0.0 | 0.00 | 0.00 | 0.00 | 86 | 1003.8 |
| 20260507050455 | 12 | 19 | 0.0 | 0.0 | 0.00 | 0.00 | 0.00 | 85 | 1003.8 |
| 20260507045950 | 12 | 19 | 0.0 | 0.0 | 0.00 | 0.00 | 0.00 | 85 | 1003.9 |
| 20260507045811 | 12 | 19 | 0.0 | 1.6 | 0.00 | 0.00 | 0.00 | 85 | 1003.8 |
| 20260507044945 | 12 | 19 | 0.0 | 4.8 | 0.00 | 0.00 | 0.00 | 85 | 1003.8 |
| 20260507044442 | 12 | 19 | 0.0 | 4.8 | 0.00 | 0.00 | 0.00 | 85 | 1003.9 |
| 20260507043944 | 12 | 19 | 0.0 | 1.6 | 0.00 | 0.00 | 0.00 | 85 | 1003.8 |
| 20260507043438 | 12 | 18 | 0.0 | 3.2 | 0.00 | 0.00 | 0.00 | 85 | 1003.8 |
| 20260507042937 | 12 | 19 | 0.0 | 3.2 | 0.00 | 0.00 | 0.00 | 85 | 1003.8 |
| 20260507042439 | 12 | 18 | 0.0 | 4.8 | 0.00 | 0.00 | 0.00 | 85 | 1003.9 |
| 20260507041938 | 12 | 18 | 1.6 | 4.8 | 0.00 | 0.00 | 0.00 | 85 | 1003.9 |
| 20260507041757 | 12 | 19 | 1.6 | 6.4 | 0.00 | 0.00 | 0.00 | 85 | 1004.0 |
| 20260507040935 | 12 | 19 | 3.2 | 6.4 | 0.00 | 0.00 | 0.00 | 85 | 1004.0 |
| 20260507040815 | 12 | 19 | 1.6 | 6.4 | 0.00 | 0.00 | 0.00 | 85 | 1004.0 |
| 20260507040330 | 12 | 19 | 1.6 | 6.4 | 0.00 | 0.00 | 0.00 | 85 | 1004.1 |
| 20260507035432 | 12 | 19 | 1.6 | 6.4 | 0.00 | 0.00 | 0.00 | 85 | 1004.1 |
| 20260507034930 | 12 | 18 | 1.6 | 6.4 | 0.00 | 0.00 | 0.00 | 85 | 1004.2 |
| 20260507034431 | 12 | 17 | 3.2 | 8.0 | 0.00 | 0.00 | 0.00 | 85 | 1004.2 |
| 20260507033930 | 12 | 27 | 3.2 | 8.0 | 0.00 | 0.00 | 0.00 | 85 | 1004.3 |
| 20260507033429 | 12 | 23 | 3.2 | 8.0 | 0.00 | 0.00 | 0.00 | 85 | 1004.3 |
| 20260507032930 | 12 | 17 | 4.8 | 9.7 | 0.00 | 0.00 | 0.00 | 85 | 1004.3 |
| 20260507032432 | 12 | 13 | 3.2 | 9.7 | 0.00 | 0.00 | 0.00 | 85 | 1004.3 |
| 20260507031929 | 12 | 21 | 3.2 | 8.0 | 0.00 | 0.00 | 0.00 | 85 | 1004.4 |
| 20260507031747 | 12 | 21 | 4.8 | 8.0 | 0.00 | 0.00 | 0.00 | 85 | 1004.4 |
| 20260507030918 | 12 | 11 | 4.8 | 9.7 | 0.00 | 0.00 | 0.00 | 86 | 1004.5 |
| 20260507030407 | 12 | 11 | 3.2 | 9.7 | 0.00 | 0.00 | 0.00 | 86 | 1004.6 |
| 20260507025906 | 12 | 355 | 3.2 | 6.4 | 0.00 | 0.00 | 0.00 | 86 | 1004.6 |
| 20260507025400 | 12 | 11 | 3.2 | 6.4 | 0.00 | 0.00 | 0.00 | 86 | 1004.6 |
| 20260507025151 | 12 | 14 | 1.6 | 6.4 | 0.00 | 0.00 | 0.00 | 86 | 1004.7 |
| 20260507025023 | 12 | 15 | 0.0 | 1.6 | 0.00 | 0.00 | 0.00 | 85 | 1004.6 |
| 20260507024932 | 12 | 14 | 1.6 | 6.4 | 0.00 | 0.00 | 0.00 | 86 | 1004.7 |
| 20260507024510 | 12 | 15 | 0.0 | 4.8 | 0.00 | 0.00 | 0.00 | 85 | 1004.7 |
| 20260507023332 | 12 | 15 | 0.0 | 1.6 | 0.00 | 0.00 | 0.00 | 85 | 1004.7 |
| 20260507022828 | 12 | 15 | 0.0 | 4.8 | 0.00 | 0.00 | 0.00 | 85 | 1004.7 |
| 20260507022706 | 12 | 15 | 1.6 | 6.4 | 0.00 | 0.00 | 0.00 | 85 | 1004.7 |
| 20260507021821 | 12 | 15 | 0.0 | 6.4 | 0.00 | 0.00 | 0.00 | 84 | 1004.7 |
| 20260507021312 | 12 | 15 | 1.6 | 8.0 | 0.00 | 0.00 | 0.00 | 84 | 1004.7 |
| 20260507020804 | 12 | 15 | 3.2 | 11.3 | 0.00 | 0.00 | 0.00 | 84 | 1004.8 |
| 20260507020620 | 13 | 16 | 4.8 | 11.3 | 0.00 | 0.00 | 0.00 | 85 | 1004.7 |
| 20260507015754 | 13 | 0 | 4.8 | 9.7 | 0.00 | 0.00 | 0.00 | 84 | 1004.7 |
| 20260507015244 | 13 | 17 | 3.2 | 8.0 | 0.00 | 0.00 | 0.00 | 84 | 1004.8 |
| 20260507014736 | 13 | 17 | 3.2 | 8.0 | 0.00 | 0.00 | 0.00 | 84 | 1004.8 |
| 20260507014235 | 13 | 17 | 4.8 | 8.0 | 0.00 | 0.00 | 0.00 | 84 | 1004.9 |
| 20260507013735 | 13 | 13 | 6.4 | 9.7 | 0.00 | 0.00 | 0.00 | 84 | 1005.0 |
| 20260507013232 | 13 | 32 | 4.8 | 9.7 | 0.00 | 0.00 | 0.00 | 84 | 1004.9 |
| 20260507012734 | 13 | 23 | 4.8 | 9.7 | 0.00 | 0.00 | 0.00 | 84 | 1005.0 |
| 20260507012231 | 13 | 5 | 4.8 | 11.3 | 0.00 | 0.00 | 0.00 | 84 | 1005.1 |
| 20260507011732 | 13 | 0 | 3.2 | 11.3 | 0.00 | 0.00 | 0.00 | 84 | 1005.1 |
| 20260507011229 | 13 | 350 | 3.2 | 4.8 | 0.00 | 0.00 | 0.00 | 84 | 1005.2 |
| 20260507010729 | 13 | 349 | 3.2 | 9.7 | 0.00 | 0.00 | 0.00 | 84 | 1005.2 |
| 20260507010616 | 13 | 348 | 1.6 | 9.7 | 0.00 | 0.00 | 0.00 | 83 | 1005.2 |
| 20260507005730 | 13 | 10 | 1.6 | 8.0 | 0.00 | 0.00 | 0.00 | 83 | 1005.3 |
| 20260507005233 | 13 | 10 | 3.2 | 8.0 | 0.00 | 0.00 | 0.00 | 83 | 1005.3 |
| 20260507004733 | 13 | 11 | 4.8 | 9.7 | 0.00 | 0.00 | 0.00 | 83 | 1005.3 |
| 20260507004232 | 13 | 11 | 4.8 | 9.7 | 0.00 | 0.00 | 0.00 | 83 | 1005.3 |
| 20260507003732 | 13 | 15 | 3.2 | 8.0 | 0.00 | 0.00 | 0.00 | 83 | 1005.3 |
| 20260507003232 | 13 | 19 | 3.2 | 9.7 | 0.00 | 0.00 | 0.00 | 83 | 1005.3 |
| 20260507003010 | 13 | 9 | 3.2 | 8.0 | 0.00 | 0.00 | 0.00 | 83 | 1005.3 |
| 20260507002902 | 13 | 20 | 3.2 | 9.7 | 0.00 | 0.00 | 0.00 | 83 | 1005.3 |
| 20260507002139 | 13 | 9 | 3.2 | 11.3 | 0.00 | 0.00 | 0.00 | 83 | 1005.3 |
| 20260507001230 | 13 | 9 | 3.2 | 11.3 | 0.00 | 0.00 | 0.00 | 83 | 1005.4 |
| 20260507000730 | 13 | 5 | 3.2 | 9.7 | 0.00 | 0.00 | 0.00 | 82 | 1005.4 |
| 20260507000233 | 13 | 24 | 4.8 | 9.7 | 0.00 | 0.00 | 0.00 | 82 | 1005.5 |
| 20260507000116 | 13 | 5 | 4.8 | 11.3 | 0.00 | 0.00 | 0.00 | 82 | 1005.6 |
| 20260506235853 | 13 | 24 | 4.8 | 9.7 | 0.00 | 0.00 | 0.00 | 82 | 1005.5 |
| 20260506235230 | 13 | 5 | 4.8 | 11.3 | 0.00 | 0.00 | 0.00 | 82 | 1005.6 |
| 20260506235115 | 13 | 11 | 6.4 | 12.9 | 0.00 | 0.00 | 0.00 | 82 | 1005.6 |
| 20260506234228 | 13 | 27 | 6.4 | 12.9 | 0.00 | 0.00 | 0.00 | 82 | 1005.6 |
| 20260506234148 | 13 | 34 | 8.0 | 12.9 | 0.00 | 0.00 | 0.00 | 82 | 1005.5 |
| 20260506233227 | 13 | 16 | 8.0 | 12.9 | 0.00 | 0.00 | 0.00 | 82 | 1005.6 |
| 20260506232729 | 13 | 13 | 8.0 | 17.7 | 0.00 | 0.00 | 0.00 | 82 | 1005.6 |
| 20260506232228 | 13 | 29 | 8.0 | 17.7 | 0.00 | 0.00 | 0.00 | 82 | 1005.6 |
| 20260506231729 | 13 | 13 | 6.4 | 12.9 | 0.00 | 0.00 | 0.00 | 82 | 1005.6 |
| 20260506231228 | 13 | 26 | 6.4 | 12.9 | 0.00 | 0.00 | 0.00 | 82 | 1005.5 |
| 20260506230729 | 13 | 34 | 6.4 | 16.1 | 0.00 | 0.00 | 0.00 | 83 | 1005.6 |
| 20260506230227 | 13 | 19 | 8.0 | 16.1 | 0.00 | 0.00 | 0.00 | 83 | 1005.6 |
| 20260506225728 | 13 | 26 | 6.4 | 16.1 | 0.00 | 0.00 | 0.00 | 82 | 1005.6 |
| 20260506225221 | 13 | 5 | 6.4 | 14.5 | 0.00 | 0.00 | 0.00 | 82 | 1005.5 |
| 20260506224709 | 13 | 36 | 6.4 | 11.3 | 0.00 | 0.00 | 0.00 | 81 | 1005.6 |
| 20260506224205 | 13 | 40 | 6.4 | 12.9 | 0.00 | 0.00 | 0.00 | 81 | 1005.6 |
| 20260506223702 | 13 | 32 | 6.4 | 12.9 | 0.00 | 0.00 | 0.00 | 81 | 1005.7 |
| 20260506223521 | 13 | 33 | 8.0 | 12.9 | 0.00 | 0.00 | 0.00 | 81 | 1005.7 |
| 20260506222703 | 14 | 19 | 8.0 | 12.9 | 0.00 | 0.00 | 0.00 | 81 | 1005.7 |
| 20260506222203 | 14 | 31 | 8.0 | 17.7 | 0.00 | 0.00 | 0.00 | 81 | 1005.8 |
| 20260506221702 | 14 | 41 | 9.7 | 17.7 | 0.00 | 0.00 | 0.00 | 81 | 1005.8 |
| 20260506221202 | 14 | 26 | 9.7 | 16.1 | 0.00 | 0.00 | 0.00 | 80 | 1005.8 |
| 20260506220702 | 14 | 27 | 8.0 | 14.5 | 0.00 | 0.00 | 0.00 | 80 | 1005.8 |
| 20260506220203 | 14 | 21 | 11.3 | 22.5 | 0.00 | 0.00 | 0.00 | 80 | 1005.9 |
| 20260506215702 | 14 | 24 | 12.9 | 22.5 | 0.00 | 0.00 | 0.00 | 80 | 1005.9 |
| 20260506215202 | 14 | 22 | 12.9 | 25.7 | 0.00 | 0.00 | 0.00 | 80 | 1005.9 |
| 20260506214702 | 14 | 21 | 14.5 | 25.7 | 0.00 | 0.00 | 0.00 | 80 | 1005.9 |
| 20260506214202 | 14 | 11 | 12.9 | 25.7 | 0.00 | 0.00 | 0.00 | 80 | 1006.0 |
| 20260506213703 | 14 | 342 | 9.7 | 24.1 | 0.00 | 0.00 | 0.00 | 80 | 1006.0 |
| 20260506213201 | 15 | 13 | 8.0 | 16.1 | 0.00 | 0.00 | 0.00 | 81 | 1006.0 |
| 20260506212702 | 15 | 11 | 9.7 | 19.3 | 0.00 | 0.00 | 0.00 | 81 | 1006.1 |
| 20260506212201 | 15 | 22 | 11.3 | 19.3 | 0.00 | 0.00 | 0.00 | 81 | 1006.0 |
| 20260506211701 | 15 | 23 | 11.3 | 19.3 | 0.00 | 0.00 | 0.00 | 81 | 1006.0 |
| 20260506211150 | 14 | 20 | 11.3 | 20.9 | 0.00 | 0.00 | 0.00 | 80 | 1006.0 |
| 20260506210638 | 15 | 9 | 14.5 | 24.1 | 0.00 | 0.00 | 0.00 | 80 | 1005.9 |
| 20260506210132 | 14 | 15 | 14.5 | 24.1 | 0.00 | 0.00 | 0.00 | 80 | 1005.9 |
| 20260506205631 | 15 | 18 | 14.5 | 27.4 | 0.00 | 0.00 | 0.00 | 81 | 1005.8 |
| 20260506205509 | 15 | 13 | 12.9 | 27.4 | 0.00 | 0.00 | 0.00 | 81 | 1005.8 |
| 20260506204633 | 15 | 19 | 9.7 | 19.3 | 0.00 | 0.00 | 0.00 | 81 | 1005.9 |
| 20260506204131 | 15 | 5 | 11.3 | 25.7 | 0.00 | 0.00 | 0.00 | 81 | 1005.9 |
| 20260506203630 | 15 | 15 | 12.9 | 25.7 | 0.00 | 0.00 | 0.00 | 81 | 1005.8 |
| 20260506203457 | 15 | 19 | 11.3 | 19.3 | 0.00 | 0.00 | 0.00 | 81 | 1005.8 |
| 20260506202951 | 15 | 18 | 11.3 | 19.3 | 0.00 | 0.00 | 0.00 | 81 | 1005.8 |
| 20260506202132 | 15 | 5 | 11.3 | 19.3 | 0.00 | 0.00 | 0.00 | 81 | 1005.8 |
| 20260506201630 | 15 | 19 | 9.7 | 17.7 | 0.00 | 0.00 | 0.00 | 80 | 1005.8 |
| 20260506201130 | 15 | 19 | 11.3 | 19.3 | 0.00 | 0.00 | 0.00 | 80 | 1005.7 |
| 20260506200633 | 15 | 17 | 12.9 | 22.5 | 0.00 | 0.00 | 0.00 | 80 | 1005.7 |
| 20260506200131 | 15 | 11 | 14.5 | 24.1 | 0.00 | 0.00 | 0.00 | 80 | 1005.7 |
| 20260506195634 | 15 | 30 | 14.5 | 24.1 | 0.00 | 0.00 | 0.00 | 80 | 1005.6 |
| 20260506195133 | 15 | 30 | 14.5 | 24.1 | 0.00 | 0.00 | 0.00 | 80 | 1005.7 |
| 20260506194638 | 15 | 27 | 16.1 | 27.4 | 0.00 | 0.00 | 0.00 | 79 | 1005.6 |
| 20260506194144 | 15 | 5 | 16.1 | 27.4 | 0.00 | 0.00 | 0.00 | 79 | 1005.6 |
| 20260506193636 | 15 | 13 | 16.1 | 25.7 | 0.00 | 0.00 | 0.00 | 79 | 1005.7 |
| 20260506193122 | 15 | 32 | 14.5 | 25.7 | 0.00 | 0.00 | 0.00 | 79 | 1005.6 |
| 20260506192621 | 15 | 355 | 14.5 | 24.1 | 0.00 | 0.00 | 0.00 | 79 | 1005.6 |
| 20260506192133 | 15 | 0 | 17.7 | 29.0 | 0.00 | 0.00 | 0.00 | 78 | 1005.5 |
| 20260506191946 | 16 | 26 | 16.1 | 29.0 | 0.00 | 0.00 | 0.00 | 77 | 1005.4 |
| 20260506191117 | 16 | 16 | 16.1 | 27.4 | 0.00 | 0.00 | 0.00 | 77 | 1005.5 |
| 20260506190620 | 16 | 32 | 14.5 | 27.4 | 0.00 | 0.00 | 0.00 | 77 | 1005.5 |
| 20260506190442 | 16 | 26 | 14.5 | 24.1 | 0.00 | 0.00 | 0.00 | 77 | 1005.4 |
| 20260506185809 | 16 | 0 | 19.3 | 32.2 | 0.00 | 0.00 | 0.00 | 76 | 1005.4 |
| 20260506185733 | 16 | 5 | 16.1 | 29.0 | 0.00 | 0.00 | 0.00 | 77 | 1005.4 |
| 20260506184614 | 16 | 351 | 20.9 | 33.8 | 0.00 | 0.00 | 0.00 | 77 | 1005.4 |
| 20260506184107 | 16 | 0 | 19.3 | 33.8 | 0.00 | 0.00 | 0.00 | 75 | 1005.4 |
| 20260506183607 | 16 | 21 | 19.3 | 30.6 | 0.00 | 0.00 | 0.00 | 75 | 1005.4 |
| 20260506183107 | 16 | 350 | 19.3 | 32.2 | 0.00 | 0.00 | 0.00 | 75 | 1005.5 |
| 20260506182606 | 17 | 21 | 16.1 | 32.2 | 0.00 | 0.00 | 0.00 | 74 | 1005.4 |
| 20260506182119 | 17 | 32 | 16.1 | 29.0 | 0.00 | 0.00 | 0.00 | 74 | 1005.4 |
| 20260506181607 | 17 | 38 | 16.1 | 29.0 | 0.00 | 0.00 | 0.00 | 74 | 1005.4 |
| 20260506181106 | 17 | 14 | 16.1 | 29.0 | 0.00 | 0.00 | 0.00 | 74 | 1005.4 |
| 20260506180606 | 17 | 347 | 19.3 | 32.2 | 0.00 | 0.00 | 0.00 | 74 | 1005.4 |
| 20260506180108 | 17 | 5 | 17.7 | 32.2 | 0.00 | 0.00 | 0.00 | 74 | 1005.5 |
| 20260506175607 | 17 | 23 | 17.7 | 29.0 | 0.00 | 0.00 | 0.00 | 74 | 1005.5 |
| 20260506175107 | 17 | 9 | 19.3 | 29.0 | 0.00 | 0.00 | 0.00 | 75 | 1005.6 |
| 20260506174606 | 17 | 20 | 19.3 | 30.6 | 0.00 | 0.00 | 0.00 | 74 | 1005.6 |
| 20260506174106 | 17 | 16 | 19.3 | 32.2 | 0.00 | 0.00 | 0.00 | 74 | 1005.6 |
| 20260506173606 | 17 | 347 | 17.7 | 32.2 | 0.00 | 0.00 | 0.00 | 72 | 1005.6 |
| 20260506173416 | 17 | 20 | 17.7 | 27.4 | 0.00 | 0.00 | 0.00 | 72 | 1005.6 |
| 20260506172606 | 17 | 19 | 19.3 | 30.6 | 0.00 | 0.00 | 0.00 | 71 | 1005.6 |
| 20260506172108 | 18 | 9 | 20.9 | 30.6 | 0.00 | 0.00 | 0.00 | 71 | 1005.6 |
| 20260506171602 | 18 | 26 | 20.9 | 32.2 | 0.00 | 0.00 | 0.00 | 69 | 1005.7 |
| 20260506171104 | 18 | 44 | 19.3 | 32.2 | 0.00 | 0.00 | 0.00 | 71 | 1005.7 |
| 20260506170847 | 18 | 32 | 19.3 | 33.8 | 0.00 | 0.00 | 0.00 | 71 | 1005.7 |
| 20260506165605 | 18 | 11 | 19.3 | 33.8 | 0.00 | 0.00 | 0.00 | 69 | 1005.7 |
| 20260506165103 | 18 | 17 | 17.7 | 33.8 | 0.00 | 0.00 | 0.00 | 69 | 1005.8 |
| 20260506164905 | 18 | 321 | 17.7 | 33.8 | 0.00 | 0.00 | 0.00 | 69 | 1005.8 |
| 20260506164403 | 18 | 0 | 19.3 | 33.8 | 0.00 | 0.00 | 0.00 | 69 | 1005.7 |
| 20260506163913 | 18 | 17 | 22.5 | 33.8 | 0.00 | 0.00 | 0.00 | 68 | 1005.8 |
| 20260506163102 | 18 | 355 | 19.3 | 33.8 | 0.00 | 0.00 | 0.00 | 67 | 1005.9 |
| 20260506162603 | 18 | 345 | 17.7 | 30.6 | 0.00 | 0.00 | 0.00 | 67 | 1005.9 |
| 20260506162103 | 18 | 11 | 17.7 | 29.0 | 0.00 | 0.00 | 0.00 | 68 | 1006.0 |
| 20260506161604 | 18 | 327 | 17.7 | 29.0 | 0.00 | 0.00 | 0.00 | 68 | 1005.9 |
| 20260506161103 | 18 | 348 | 19.3 | 32.2 | 0.00 | 0.00 | 0.00 | 67 | 1006.0 |
| 20260506160602 | 18 | 9 | 17.7 | 32.2 | 0.00 | 0.00 | 0.00 | 66 | 1005.9 |
| 20260506155602 | 18 | 5 | 17.7 | 29.0 | 0.00 | 0.00 | 0.00 | 69 | 1005.9 |
| 20260506155104 | 18 | 20 | 19.3 | 32.2 | 0.00 | 0.00 | 0.00 | 69 | 1005.9 |
| 20260506154602 | 19 | 5 | 16.1 | 32.2 | 0.00 | 0.00 | 0.00 | 68 | 1006.0 |
| 20260506154408 | 19 | 355 | 16.1 | 27.4 | 0.00 | 0.00 | 0.00 | 70 | 1006.0 |
| 20260506153603 | 18 | 5 | 19.3 | 29.0 | 0.00 | 0.00 | 0.00 | 71 | 1006.0 |
| 20260506153103 | 18 | 35 | 19.3 | 30.6 | 0.00 | 0.00 | 0.00 | 70 | 1006.0 |
| 20260506152602 | 18 | 355 | 19.3 | 30.6 | 0.00 | 0.00 | 0.00 | 68 | 1006.0 |
| 20260506152102 | 18 | 5 | 20.9 | 30.6 | 0.00 | 0.00 | 0.00 | 70 | 1006.1 |
| 20260506151602 | 18 | 330 | 19.3 | 35.4 | 0.00 | 0.00 | 0.00 | 69 | 1006.1 |
| 20260506151338 | 18 | 337 | 17.7 | 29.0 | 0.00 | 0.00 | 0.00 | 70 | 1006.4 |
| 20260506151253 | 18 | 20 | 19.3 | 35.4 | 0.00 | 0.00 | 0.00 | 70 | 1006.2 |
| 20260506151027 | 18 | 348 | 17.7 | 29.0 | 0.00 | 0.00 | 0.00 | 70 | 1006.3 |
| 20260506145603 | 18 | 13 | 17.7 | 29.0 | 0.00 | 0.00 | 0.00 | 70 | 1006.4 |
| 20260506145102 | 18 | 22 | 14.5 | 29.0 | 0.00 | 0.00 | 0.00 | 70 | 1006.6 |
| 20260506144601 | 18 | 331 | 16.1 | 30.6 | 0.00 | 0.00 | 0.00 | 71 | 1006.7 |
| 20260506144102 | 18 | 0 | 16.1 | 30.6 | 0.00 | 0.00 | 0.00 | 71 | 1006.7 |
| 20260506143602 | 18 | 5 | 16.1 | 29.0 | 0.00 | 0.00 | 0.00 | 72 | 1006.7 |
| 20260506143102 | 18 | 5 | 16.1 | 27.4 | 0.00 | 0.00 | 0.00 | 72 | 1006.8 |
| 20260506142604 | 18 | 336 | 14.5 | 29.0 | 0.00 | 0.00 | 0.00 | 71 | 1006.8 |
| 20260506142236 | 18 | 5 | 16.1 | 25.7 | 0.00 | 0.00 | 0.00 | 71 | 1006.8 |
| 20260506142207 | 18 | 10 | 14.5 | 29.0 | 0.00 | 0.00 | 0.00 | 71 | 1006.9 |
| 20260506141357 | 18 | 22 | 17.7 | 29.0 | 0.00 | 0.00 | 0.00 | 71 | 1006.8 |
| 20260506140904 | 18 | 349 | 16.1 | 29.0 | 0.00 | 0.00 | 0.00 | 73 | 1006.8 |
| 20260506140047 | 18 | 346 | 16.1 | 27.4 | 0.00 | 0.00 | 0.00 | 72 | 1006.9 |
| 20260506135546 | 18 | 355 | 16.1 | 30.6 | 0.00 | 0.00 | 0.00 | 70 | 1007.0 |
| 20260506135048 | 18 | 19 | 16.1 | 30.6 | 0.00 | 0.00 | 0.00 | 72 | 1007.0 |
| 20260506134546 | 18 | 15 | 14.5 | 27.4 | 0.00 | 0.00 | 0.00 | 72 | 1007.1 |
| 20260506134357 | 18 | 331 | 16.1 | 29.0 | 0.00 | 0.00 | 0.00 | 73 | 1007.0 |
| 20260506133547 | 18 | 339 | 17.7 | 29.0 | 0.00 | 0.00 | 0.00 | 74 | 1007.2 |
| 20260506133041 | 18 | 332 | 17.7 | 25.7 | 0.00 | 0.00 | 0.00 | 74 | 1007.2 |
| 20260506132532 | 18 | 329 | 16.1 | 27.4 | 0.00 | 0.00 | 0.00 | 75 | 1007.3 |
| 20260506132029 | 18 | 0 | 17.7 | 29.0 | 0.00 | 0.00 | 0.00 | 77 | 1007.3 |
| 20260506131900 | 17 | 323 | 17.7 | 29.0 | 0.00 | 0.00 | 0.00 | 76 | 1007.4 |
| 20260506131029 | 17 | 344 | 16.1 | 25.7 | 0.00 | 0.00 | 0.00 | 77 | 1007.4 |
| 20260506130530 | 17 | 306 | 17.7 | 33.8 | 0.00 | 0.00 | 0.00 | 79 | 1007.4 |
| 20260506130030 | 17 | 350 | 19.3 | 33.8 | 0.00 | 0.00 | 0.00 | 79 | 1007.4 |
| 20260506125529 | 17 | 317 | 19.3 | 33.8 | 0.00 | 0.00 | 0.00 | 78 | 1007.4 |
| 20260506125029 | 17 | 334 | 19.3 | 35.4 | 0.00 | 0.00 | 0.00 | 81 | 1007.6 |
| 20260506124532 | 16 | 340 | 20.9 | 35.4 | 0.00 | 0.00 | 0.00 | 80 | 1007.6 |
| 20260506124343 | 16 | 355 | 20.9 | 37.0 | 0.00 | 0.00 | 0.00 | 79 | 1007.7 |
| 20260506123530 | 16 | 342 | 20.9 | 37.0 | 0.00 | 0.00 | 0.00 | 81 | 1007.7 |
| 20260506123031 | 16 | 355 | 19.3 | 32.2 | 0.00 | 0.00 | 0.00 | 81 | 1007.7 |
| 20260506122531 | 16 | 317 | 17.7 | 29.0 | 0.00 | 0.00 | 0.00 | 81 | 1007.8 |
| 20260506122030 | 16 | 335 | 16.1 | 27.4 | 0.00 | 0.00 | 0.00 | 81 | 1007.8 |
| 20260506121529 | 16 | 321 | 16.1 | 27.4 | 0.00 | 0.00 | 0.00 | 81 | 1007.9 |
| 20260506121337 | 17 | 347 | 16.1 | 27.4 | 0.00 | 0.00 | 0.00 | 80 | 1008.0 |
| 20260506120530 | 17 | 325 | 16.1 | 30.6 | 0.00 | 0.00 | 0.00 | 81 | 1008.0 |
| 20260506120029 | 17 | 318 | 16.1 | 30.6 | 0.00 | 0.00 | 0.00 | 81 | 1008.1 |
| 20260506115518 | 16 | 302 | 19.3 | 29.0 | 0.00 | 0.00 | 0.00 | 81 | 1008.0 |
| 20260506115333 | 17 | 321 | 19.3 | 29.0 | 0.00 | 0.00 | 0.00 | 80 | 1008.0 |
| 20260506114518 | 17 | 321 | 17.7 | 27.4 | 0.00 | 0.00 | 0.00 | 78 | 1008.1 |
| 20260506114017 | 17 | 299 | 14.5 | 27.4 | 0.00 | 0.00 | 0.00 | 78 | 1008.1 |
| 20260506113518 | 17 | 300 | 12.9 | 22.5 | 0.00 | 0.00 | 0.00 | 79 | 1008.2 |
| 20260506113019 | 17 | 300 | 14.5 | 25.7 | 0.00 | 0.00 | 0.00 | 78 | 1008.2 |
| 20260506112519 | 17 | 325 | 16.1 | 25.7 | 0.00 | 0.00 | 0.00 | 80 | 1008.2 |
| 20260506112017 | 17 | 305 | 14.5 | 25.7 | 0.00 | 0.00 | 0.00 | 79 | 1008.3 |
| 20260506111902 | 17 | 336 | 16.1 | 25.7 | 0.00 | 0.00 | 0.00 | 79 | 1008.3 |
| 20260506111015 | 17 | 328 | 14.5 | 25.7 | 0.00 | 0.00 | 0.00 | 79 | 1008.3 |
| 20260506110501 | 17 | 338 | 12.9 | 22.5 | 0.00 | 0.00 | 0.00 | 82 | 1008.3 |
| 20260506110002 | 16 | 322 | 14.5 | 24.1 | 0.00 | 0.00 | 0.00 | 83 | 1008.4 |
| 20260506105502 | 16 | 342 | 12.9 | 24.1 | 0.00 | 0.00 | 0.00 | 82 | 1008.5 |
| 20260506105002 | 16 | 349 | 12.9 | 22.5 | 0.00 | 0.00 | 0.00 | 83 | 1008.5 |
| 20260506104659 | 16 | 0 | 14.5 | 29.0 | 0.00 | 0.00 | 0.00 | 82 | 1008.3 |
| 20260506104559 | 16 | 0 | 16.1 | 29.0 | 0.00 | 0.00 | 0.00 | 82 | 1008.4 |
| 20260506103502 | 16 | 344 | 14.5 | 24.1 | 0.00 | 0.00 | 0.00 | 84 | 1008.3 |
| 20260506103318 | 16 | 331 | 16.1 | 24.1 | 0.00 | 0.00 | 0.00 | 83 | 1008.4 |
| 20260506102503 | 16 | 317 | 16.1 | 24.1 | 0.00 | 0.00 | 0.00 | 83 | 1008.4 |
| 20260506101957 | 16 | 333 | 17.7 | 29.0 | 0.00 | 0.00 | 0.00 | 84 | 1008.4 |
| 20260506101446 | 15 | 318 | 17.7 | 29.0 | 0.00 | 0.00 | 0.00 | 84 | 1008.4 |
| 20260506100933 | 15 | 308 | 16.1 | 25.7 | 0.00 | 0.00 | 0.00 | 85 | 1008.4 |
| 20260506100434 | 15 | 338 | 14.5 | 22.5 | 0.00 | 0.00 | 0.00 | 86 | 1008.4 |
| 20260506095935 | 15 | 317 | 12.9 | 30.6 | 0.00 | 0.00 | 0.00 | 86 | 1008.5 |
| 20260506095435 | 15 | 319 | 16.1 | 30.6 | 0.00 | 0.00 | 0.00 | 86 | 1008.4 |
| 20260506094935 | 15 | 317 | 17.7 | 30.6 | 0.00 | 0.00 | 0.00 | 86 | 1008.5 |
| 20260506094435 | 15 | 325 | 17.7 | 30.6 | 0.00 | 0.00 | 0.00 | 85 | 1008.5 |
| 20260506093935 | 15 | 286 | 16.1 | 30.6 | 0.00 | 0.00 | 0.00 | 84 | 1008.5 |
| 20260506093435 | 16 | 275 | 14.5 | 25.7 | 0.00 | 0.00 | 0.00 | 83 | 1008.4 |
| 20260506093251 | 16 | 327 | 16.1 | 25.7 | 0.00 | 0.00 | 0.00 | 82 | 1008.4 |
| 20260506092430 | 16 | 299 | 16.1 | 25.7 | 0.00 | 0.00 | 0.00 | 79 | 1008.3 |
| 20260506091931 | 16 | 345 | 14.5 | 24.1 | 0.00 | 0.00 | 0.00 | 76 | 1008.2 |
| 20260506091434 | 16 | 5 | 16.1 | 24.1 | 0.00 | 0.00 | 0.00 | 77 | 1008.3 |
| 20260506090930 | 16 | 10 | 14.5 | 24.1 | 0.00 | 0.00 | 0.00 | 77 | 1008.3 |
| 20260506090430 | 16 | 5 | 14.5 | 22.5 | 0.00 | 0.00 | 0.00 | 76 | 1008.2 |
| 20260506085931 | 16 | 9 | 14.5 | 25.7 | 0.00 | 0.00 | 0.00 | 77 | 1008.3 |
| 20260506085430 | 16 | 41 | 16.1 | 25.7 | 0.00 | 0.00 | 0.00 | 77 | 1008.3 |
| 20260506084933 | 16 | 16 | 14.5 | 25.7 | 0.00 | 0.00 | 0.00 | 78 | 1008.3 |
| 20260506084430 | 16 | 355 | 11.3 | 24.1 | 0.00 | 0.00 | 0.00 | 79 | 1008.2 |
| 20260506083930 | 16 | 11 | 9.7 | 16.1 | 0.00 | 0.00 | 0.00 | 80 | 1008.2 |
| 20260506083738 | 15 | 355 | 11.3 | 17.7 | 0.00 | 0.00 | 0.00 | 80 | 1008.2 |
| 20260506082930 | 15 | 0 | 11.3 | 17.7 | 0.00 | 0.00 | 0.00 | 81 | 1008.2 |
| 20260506082430 | 15 | 25 | 9.7 | 17.7 | 0.00 | 0.00 | 0.00 | 82 | 1008.2 |
| 20260506081931 | 15 | 5 | 11.3 | 20.9 | 0.00 | 0.00 | 0.00 | 83 | 1008.2 |
| 20260506081429 | 15 | 29 | 11.3 | 20.9 | 0.00 | 0.00 | 0.00 | 84 | 1008.2 |
| 20260506080929 | 15 | 9 | 9.7 | 16.1 | 0.00 | 0.00 | 0.00 | 85 | 1008.3 |
| 20260506080430 | 15 | 24 | 11.3 | 20.9 | 0.00 | 0.00 | 0.00 | 86 | 1008.3 |
| 20260506073431 | 14 | 24 | 0.0 | 1.6 | 0.00 | 0.00 | 0.00 | 88 | 1008.3 |
| 20260506072930 | 14 | 24 | 0.0 | 0.0 | 0.00 | 0.00 | 0.00 | 88 | 1008.2 |
| 20260506072430 | 14 | 24 | 0.0 | 0.0 | 0.00 | 0.00 | 0.00 | 88 | 1008.3 |
| 20260506071931 | 14 | 23 | 0.0 | 3.2 | 0.00 | 0.00 | 0.00 | 88 | 1008.3 |
| 20260506071440 | 13 | 23 | 1.6 | 3.2 | 0.00 | 0.00 | 0.00 | 88 | 1008.2 |
| 20260506070931 | 13 | 22 | 1.6 | 4.8 | 0.00 | 0.00 | 0.00 | 88 | 1008.2 |
| 20260506070432 | 13 | 22 | 0.0 | 4.8 | 0.00 | 0.00 | 0.00 | 88 | 1008.2 |
| 20260506070240 | 13 | 24 | 0.0 | 3.2 | 0.00 | 0.00 | 0.00 | 88 | 1008.2 |
| 20260506062419 | 12 | 24 | 0.0 | 0.0 | 0.00 | 0.00 | 0.00 | 88 | 1008.1 |
| 20260506061917 | 12 | 24 | 0.0 | 1.6 | 0.00 | 0.00 | 0.00 | 88 | 1008.0 |
| 20260506061417 | 12 | 24 | 0.0 | 1.6 | 0.00 | 0.00 | 0.00 | 88 | 1008.0 |
| 20260506060918 | 12 | 24 | 0.0 | 0.0 | 0.00 | 0.00 | 0.00 | 88 | 1008.0 |
| 20260506060418 | 12 | 23 | 0.0 | 0.0 | 0.00 | 0.00 | 0.00 | 88 | 1008.0 |